Probability
0 3 0 3 3 0 0 0 0 0 0 0 0 0 0 0 0 0 0 0 0 0 0 3 0 3 3 6 10 6 6 3 3 3 3 3 3 0 0 0 0 0 0
0 0 0 0 3 3 3 0 0 0 0 0 0 0 0 0 0 0 0 0 0 0 3 3 3 3 6 10 10 6 6 3 3 3 3 3 3 3 0 0 0 0 0
0 0 0 0 0 3 3 0 0 0 0 0 0 0 0 0 0 0 0 0 0 0 0 3 3 3 3 6 6 3 6 6 3 3 3 0 0 3 3 0 0 0 0
0 0 0 0 0 0 3 0 0 0 0 0 0 0 0 0 0 0 0 0 0 0 0 0 3 3 3 6 6 10 6 3 3 3 3 3 0 0 0 0 0 0 0
0 0 0 0 0 0 0 0 0 0 0 0 0 0 0 0 0 0 0 0 0 0 0 0 0 0 3 6 6 6 6 3 3 3 0 3 0 0 0 0 0 0 0
0 0 0 0 0 0 0 0 0 0 0 0 0 0 0 0 0 0 0 0 0 0 0 0 0 0 0 0 6 3 3 3 0 0 0 0 0 0 0 0 0 0 0
0 0 0 0 0 0 0 0 0 0 0 0 0 0 0 0 0 0 0 0 0 0 0 0 0 0 0 0 0 0 3 3 0 0 0 0 0 0 0 0 0 0 0
0 0 0 0 0 0 0 0 0 0 0 0 0 0 0 0 0 0 0 0 0 0 0 0 0 0 0 0 0 0 0 0 3 3 0 0 0 0 0 0 0 0 0
0 0 0 0 0 0 0 0 0 0 0 0 0 0 0 0 0 0 0 0 0 0 0 0 0 0 0 0 0 0 0 0 0 3 0 0 0 0 0 0 0 0 0
0 0 0 0 0 0 0 0 0 0 0 0 0 0 0 0 0 0 0 0 0 0 0 0 0 0 0 0 0 0 0 0 0 0 0 0 0 0 0 0 0 0 0
0 0 0 0 0 0 0 0 0 0 0 0 0 0 0 0 0 0 0 0 0 0 0 0 0 0 0 0 0 0 0 0 0 0 0 0 0 3 0 0 0 0 0
0 0 0 0 0 0 0 0 0 0 0 0 0 0 0 0 0 0 0 0 0 0 0 0 0 0 0 0 0 0 0 0 0 0 0 0 0 0 0 0 0 0 0
0 0 0 0 0 0 0 0 0 0 0 0 0 0 0 0 0 0 0 0 0 0 0 0 0 0 0 0 0 0 0 0 0 0 0 0 0 0 0 0 0 0 0
0 0 0 0 0 0 0 0 0 0 0 0 0 0 0 0 0 0 0 0 0 0 0 0 0 0 0 0 0 0 0 0 0 0 0 0 0 0 0 0 0 0 0
0 0 0 0 0 0 0 0 0 0 0 0 0 0 0 0 0 0 0 0 0 0 0 0 0 0 0 0 0 0 0 0 0 0 0 0 0 0 0 0 0 0 0
0 0 0 0 0 0 0 0 0 0 0 0 0 0 0 0 0 0 0 0 0 0 0 0 0 0 0 0 0 0 0 0 0 0 0 0 0 0 0 0 0 0 0
0 0 0 0 0 0 0 0 0 0 0 0 0 0 0 0 0 0 0 0 0 0 0 0 0 0 0 0 0 0 0 0 0 0 0 0 0 0 0 0 0 0 0
0 0 0 0 0 0 0 0 0 0 0 0 0 0 0 0 0 0 0 0 0 0 0 0 0 0 0 0 0 0 0 0 0 0 0 0 0 0 0 0 0 0 0
0 0 0 0 0 0 0 0 0 0 0 0 0 0 0 0 0 0 0 0 0 0 0 0 0 0 0 0 0 0 0 0 0 0 0 0 0 0 0 0 0 0 0
0 0 0 0 0 0 0 0 0 0 0 0 0 0 0 0 0 0 0 0 0 0 0 0 0 0 0 0 0 0 0 0 0 0 0 0 0 0 0 0 0 0 0
0 0 0 0 0 0 0 0 0 0 0 0 0 0 0 0 0 0 0 0 0 0 0 0 0 0 0 0 0 0 0 0 0 0 0 0 0 0 0 0 0 0 0
0 0 0 0 0 0 0 0 0 0 0 0 0 0 0 0 0 0 0 0 0 0 0 0 0 0 0 0 0 0 0 0 0 0 0 0 0 0 0 0 0 0 0
0 0 0 0 0 0 0 0 0 0 0 0 0 0 0 0 0 0 0 0 0 0 0 0 0 0 0 0 0 0 0 0 0 0 0 0 0 0 0 0 0 0 0
0 0 0 0 0 0 0 0 0 0 0 0 0 0 0 0 0 0 0 0 0 0 0 0 0 0 0 0 0 0 0 0 0 0 0 0 0 0 0 0 0 0 0
0 0 0 0 0 0 0 0 0 0 0 0 0 0 0 0 0 0 0 0 0 0 0 0 0 0 0 0 0 0 0 0 0 0 0 0 0 0 0 0 0 0 0
0 0 0 0 0 0 0 0 0 0 0 0 0 0 0 0 0 0 0 0 0 0 0 0 0 0 0 0 0 0 0 0 0 0 0 0 0 0 0 0 0 0 0
Height
5842 5843 5844 5845 5846 5846 5847 5847 5847 5847 5847 5847 5846 5846 5845 5845 5844 5843 5842 5840 5839 5837 5835 5833 5831 5829 5827 5825 5823 5821 5819 5817 5814 5812 5809 5807 5805 5802 5800 5797 5794 5792 5789
5836 5837 5838 5839 5840 5841 5841 5842 5842 5842 5842 5842 5841 5841 5840 5839 5838 5837 5836 5835 5833 5832 5830 5828 5826 5824 5822 5819 5817 5815 5813 5811 5809 5806 5804 5801 5799 5796 5793 5791 5788 5785 5782
5829 5830 5831 5832 5833 5834 5835 5835 5835 5836 5836 5836 5835 5835 5834 5833 5832 5831 5830 5829 5827 5825 5824 5822 5820 5818 5816 5813 5811 5809 5807 5804 5802 5800 5797 5795 5792 5789 5787 5784 5781 5778 5775
5822 5823 5824 5825 5826 5827 5828 5828 5828 5829 5829 5829 5829 5828 5828 5827 5826 5825 5823 5822 5820 5819 5817 5815 5813 5811 5809 5807 5804 5802 5800 5798 5795 5793 5790 5788 5785 5782 5779 5776 5773 5771 5768
5814 5815 5816 5817 5818 5819 5819 5820 5821 5821 5821 5821 5821 5821 5820 5819 5818 5817 5816 5815 5813 5811 5809 5808 5806 5804 5802 5799 5797 5795 5792 5790 5788 5785 5783 5780 5777 5774 5771 5768 5765 5762 5759
5806 5806 5808 5809 5810 5811 5812 5812 5813 5813 5813 5813 5813 5813 5812 5811 5810 5809 5808 5806 5805 5803 5801 5800 5798 5796 5793 5791 5789 5787 5785 5782 5780 5777 5775 5772 5769 5766 5763 5760 5757 5754 5750
5797 5798 5799 5800 5801 5802 5803 5803 5804 5804 5804 5804 5804 5804 5803 5803 5802 5801 5800 5798 5797 5795 5793 5791 5789 5787 5785 5783 5781 5778 5776 5773 5771 5768 5766 5763 5760 5757 5754 5751 5747 5744 5741
5789 5789 5790 5791 5792 5793 5794 5794 5795 5795 5795 5795 5794 5794 5794 5794 5793 5792 5790 5789 5787 5786 5784 5782 5780 5778 5776 5773 5771 5769 5766 5764 5762 5759 5756 5754 5751 5748 5744 5741 5737 5734 5731
5780 5781 5781 5782 5783 5784 5784 5785 5785 5785 5785 5785 5785 5784 5784 5784 5784 5783 5781 5779 5778 5776 5774 5772 5770 5768 5765 5763 5761 5759 5756 5754 5752 5749 5746 5744 5741 5737 5734 5731 5727 5724 5720
5771 5771 5772 5772 5773 5774 5774 5775 5775 5775 5775 5775 5775 5774 5774 5773 5773 5773 5772 5770 5768 5766 5764 5762 5760 5757 5755 5753 5751 5748 5746 5744 5741 5738 5736 5733 5730 5727 5724 5720 5717 5713 5710
5761 5761 5762 5762 5763 5763 5764 5764 5765 5765 5765 5765 5764 5764 5763 5762 5761 5761 5761 5760 5758 5756 5754 5751 5749 5747 5744 5742 5740 5738 5735 5733 5730 5727 5724 5721 5719 5716 5713 5709 5706 5702 5699
5750 5751 5751 5751 5752 5752 5753 5753 5754 5754 5754 5754 5753 5752 5752 5751 5751 5750 5749 5748 5747 5745 5742 5740 5738 5735 5733 5730 5728 5726 5723 5721 5718 5715 5713 5710 5707 5704 5701 5698 5695 5692 5688
5739 5739 5740 5740 5740 5741 5741 5741 5742 5742 5742 5742 5742 5741 5740 5740 5739 5738 5737 5736 5735 5734 5731 5728 5726 5723 5721 5718 5716 5713 5711 5708 5706 5704 5701 5699 5696 5693 5690 5687 5684 5681 5678
5727 5728 5728 5728 5728 5728 5728 5729 5729 5729 5730 5730 5729 5729 5728 5727 5727 5726 5725 5723 5722 5722 5719 5717 5714 5711 5708 5706 5703 5701 5698 5696 5694 5691 5689 5686 5684 5681 5678 5675 5673 5670 5667
5714 5715 5715 5715 5715 5715 5715 5716 5716 5717 5717 5717 5717 5716 5716 5715 5714 5713 5712 5710 5709 5708 5708 5705 5702 5699 5695 5693 5690 5688 5685 5683 5681 5678 5676 5673 5671 5668 5665 5663 5661 5658 5655
5702 5702 5703 5703 5703 5703 5703 5703 5703 5704 5704 5704 5704 5704 5704 5703 5702 5701 5699 5697 5696 5694 5693 5692 5689 5686 5683 5681 5678 5675 5672 5670 5667 5664 5662 5660 5657 5655 5652 5650 5648 5646 5643
5690 5690 5691 5691 5691 5691 5691 5691 5691 5691 5691 5692 5691 5691 5691 5690 5690 5689 5687 5685 5684 5681 5680 5679 5676 5673 5670 5668 5665 5662 5659 5656 5654 5651 5648 5646 5643 5641 5639 5637 5635 5633 5630
5678 5678 5678 5679 5679 5679 5679 5679 5679 5679 5678 5679 5679 5679 5678 5678 5677 5676 5675 5673 5671 5669 5667 5666 5664 5661 5658 5655 5652 5649 5646 5643 5640 5637 5634 5632 5630 5628 5625 5623 5621 5619 5617
5667 5667 5667 5667 5667 5667 5667 5667 5667 5666 5666 5666 5666 5666 5666 5665 5665 5664 5662 5660 5659 5657 5655 5653 5651 5647 5645 5642 5639 5636 5632 5629 5625 5622 5620 5618 5616 5614 5611 5609 5607 5605 5603
5655 5655 5655 5655 5655 5655 5655 5655 5655 5654 5654 5653 5653 5653 5653 5652 5652 5651 5650 5648 5646 5644 5642 5640 5637 5635 5632 5629 5625 5622 5619 5615 5612 5609 5606 5604 5602 5600 5597 5596 5594 5592 5589
5644 5644 5643 5643 5643 5643 5643 5642 5643 5642 5641 5641 5640 5640 5640 5639 5639 5638 5637 5635 5633 5631 5629 5627 5624 5621 5619 5615 5612 5609 5605 5602 5599 5596 5593 5591 5589 5587 5584 5582 5579 5577 5575
5633 5632 5631 5631 5630 5630 5630 5629 5630 5629 5629 5628 5628 5628 5627 5627 5626 5625 5624 5622 5620 5618 5616 5613 5611 5608 5605 5602 5598 5595 5592 5589 5587 5584 5581 5579 5576 5574 5571 5569 5566 5564 5562
5621 5620 5619 5618 5618 5618 5617 5617 5617 5617 5616 5616 5615 5615 5615 5614 5613 5612 5610 5608 5606 5604 5602 5600 5597 5594 5592 5589 5586 5583 5579 5575 5572 5569 5567 5566 5563 5560 5558 5555 5553 5551 5548
5610 5609 5608 5608 5607 5606 5605 5605 5605 5605 5604 5604 5603 5603 5602 5601 5600 5599 5598 5596 5593 5591 5589 5587 5585 5581 5578 5575 5572 5569 5565 5563 5560 5555 5553 5553 5550 5548 5545 5542 5540 5538 5536
5599 5598 5597 5596 5595 5594 5593 5593 5593 5593 5592 5591 5591 5590 5589 5589 5588 5586 5585 5584 5581 5579 5575 5573 5571 5568 5565 5562 5559 5556 5553 5551 5548 5545 5541 5540 5538 5536 5533 5530 5528 5525 5523
5587 5586 5586 5585 5584 5583 5582 5581 5581 5581 5580 5579 5578 5577 5577 5576 5575 5574 5572 5571 5569 5567 5564 5561 5558 5555 5552 5549 5546 5543 5540 5538 5535 5533 5530 5527 5525 5523 5522 5520 5517 5514 5512
Wind_Speed
28 27 26 26 26 26 26 26 25 25 25 25 24 24 23 23 23 23 23 23 24 24 24 25 26 26 26 26 27 27 27 26 27 27 27 27 28 28 27 28 28 29 29
30 29 29 28 28 28 28 28 28 27 27 26 26 25 25 25 25 25 25 25 26 26 27 28 28 28 28 28 29 28 28 28 28 28 29 29 29 30 30 30 30 30 30
32 31 31 31 30 30 30 30 30 29 29 28 28 28 28 27 27 28 27 27 28 29 29 30 30 30 30 30 30 30 30 30 30 30 31 31 32 32 32 31 32 32 32
33 33 32 32 32 31 32 32 32 31 31 30 30 30 30 30 30 30 30 30 31 31 31 31 32 32 32 32 32 32 32 32 32 33 33 34 34 34 34 34 34 34 34
35 35 35 35 34 33 33 33 33 34 34 33 32 32 32 32 32 32 32 33 33 33 33 34 34 34 34 34 34 34 34 34 34 35 35 35 35 36 36 36 36 36 36
36 37 36 36 36 36 35 35 35 36 36 35 34 35 35 35 35 35 34 35 35 36 36 36 36 36 36 36 36 36 36 36 36 36 36 36 37 37 38 38 37 37 37
37 38 38 38 38 38 38 37 37 37 38 37 37 37 37 37 37 37 37 37 37 38 38 38 38 38 38 38 38 38 38 37 38 38 38 38 38 38 39 39 39 39 39
39 39 39 39 40 40 40 40 40 39 39 39 40 40 39 39 39 39 40 39 39 40 40 40 40 40 40 40 40 39 39 40 40 40 40 40 40 40 40 40 41 41 40
40 40 40 41 42 42 42 42 42 42 42 42 42 42 42 42 40 40 41 41 41 41 42 42 42 41 40 41 41 41 41 41 42 42 42 43 42 42 42 42 42 42 41
41 42 42 42 43 44 44 44 44 44 44 44 44 44 44 44 43 42 42 42 43 43 43 43 42 42 42 42 42 42 42 43 43 44 44 44 44 43 43 43 42 42 41
43 43 44 44 44 45 46 46 45 45 45 45 45 45 45 45 46 45 44 44 44 44 44 44 44 45 44 44 45 45 44 45 45 45 44 44 44 44 45 44 43 43 42
45 45 45 46 46 46 47 47 47 47 46 46 46 47 47 47 47 47 46 45 45 45 46 46 46 46 46 46 46 46 47 46 46 45 44 44 44 45 45 44 44 43 43
46 46 46 47 47 48 48 48 48 48 48 48 48 49 49 49 49 48 48 48 47 46 47 46 47 47 47 47 47 48 48 47 46 45 45 46 46 46 46 45 44 44 44
46 46 46 46 47 48 48 48 49 48 48 48 48 49 49 50 49 50 50 49 48 48 48 48 48 48 48 48 48 49 48 48 47 47 47 48 47 48 46 45 45 44 45
47 46 46 46 46 46 47 47 49 49 49 48 48 48 49 49 49 49 49 50 50 50 49 49 49 48 49 49 50 49 49 48 48 48 48 48 47 47 47 46 45 44 45
46 46 47 48 47 46 45 45 47 48 49 49 48 49 49 49 49 50 49 49 49 49 48 48 49 49 49 50 50 50 50 49 48 49 48 48 48 48 47 46 46 46 46
46 46 46 46 46 46 45 46 46 47 47 49 49 49 49 50 50 50 49 49 49 48 48 47 48 49 49 49 49 49 50 51 51 51 50 49 48 48 47 47 47 47 47
45 45 45 46 46 46 46 46 46 47 48 49 50 50 50 49 49 49 49 49 48 48 48 48 48 48 48 49 49 50 51 51 51 51 50 49 48 48 49 48 48 48 48
45 45 46 46 46 46 46 46 46 46 46 47 47 47 47 47 47 48 48 48 48 48 48 49 49 48 48 49 50 50 50 50 49 50 50 49 49 49 49 50 49 49 49
44 44 45 46 46 45 45 45 46 45 45 45 45 45 45 46 46 47 47 49 48 48 49 48 48 48 48 48 48 49 49 49 49 49 49 49 49 48 49 50 49 49 48
44 44 45 45 45 45 46 47 46 45 44 44 44 45 46 46 46 46 47 47 47 47 48 48 47 47 48 48 48 48 48 48 48 48 47 48 48 48 49 49 49 48 47
43 43 44 44 44 45 45 45 45 45 44 45 45 46 47 47 47 47 47 47 47 47 48 47 47 48 48 48 48 49 49 49 47 47 47 47 47 48 48 48 48 47 47
42 42 43 44 44 43 43 43 43 44 44 45 45 45 45 46 46 47 47 47 47 48 48 48 47 48 48 48 48 47 48 48 47 47 47 45 46 46 46 46 46 47 46
39 41 42 42 42 42 43 43 44 44 44 44 44 45 45 45 45 46 47 47 47 47 47 47 48 48 47 47 48 47 46 46 46 46 46 45 45 46 46 45 45 45 45
41 40 40 41 41 42 42 43 43 43 43 44 45 45 45 45 44 45 46 46 46 46 45 46 46 45 45 46 46 46 46 45 44 45 45 44 44 44 44 44 44 44 44
41 41 40 40 40 40 41 41 42 43 43 44 45 45 45 44 44 45 45 45 44 44 44 44 44 44 44 45 45 46 45 45 45 45 45 45 45 43 41 41 41 42 42
Wind_Direction
252 255 257 259 262 264 265 266 267 269 271 273 275 276 279 281 282 284 287 289 292 294 296 297 297 296 296 298 298 298 298 298 297 296 296 297 298 298 298 298 298 298 298
252 255 257 259 262 264 266 267 268 270 271 272 274 276 278 280 281 283 285 287 289 291 293 295 295 295 295 296 297 297 296 296 295 294 295 296 297 297 297 298 298 297 297
254 256 258 259 261 264 266 267 269 269 270 272 275 277 279 279 281 282 283 286 288 289 291 292 293 294 293 294 295 295 295 294 294 293 293 294 294 295 296 296 297 297 297
258 258 259 259 260 263 265 267 268 269 270 272 275 277 278 278 279 281 282 284 286 288 289 290 291 292 292 292 293 293 293 293 293 292 293 293 293 294 294 295 295 295 295
259 259 259 260 260 262 264 266 267 268 270 271 273 276 278 278 279 280 282 283 285 286 287 289 289 290 290 289 289 290 291 292 293 292 292 292 292 292 293 293 294 294 294
260 260 260 261 261 262 263 265 267 268 269 271 272 274 276 277 278 279 281 283 284 285 286 287 288 288 288 288 287 288 289 290 291 291 291 291 292 292 292 292 292 293 294
260 260 261 262 263 263 264 265 266 267 269 271 272 273 274 276 278 280 281 283 283 284 285 286 287 287 287 287 287 287 288 288 290 290 290 290 291 291 292 292 292 293 294
261 261 262 262 263 264 265 265 266 268 270 271 272 273 274 276 278 280 281 282 283 283 284 286 286 286 285 285 286 286 287 287 288 289 289 290 290 291 291 291 291 292 292
262 262 263 263 263 264 265 266 267 268 270 271 271 273 274 275 278 280 282 282 282 283 283 284 285 285 285 285 285 285 286 287 287 288 288 289 290 290 290 291 291 292 291
262 263 263 264 263 264 265 266 267 268 270 271 272 273 275 276 277 279 280 282 283 283 282 283 284 283 284 285 285 285 286 287 286 287 288 288 288 289 290 291 291 291 290
262 263 265 266 266 265 266 266 267 268 270 271 272 274 275 276 278 279 280 281 282 282 282 282 283 283 283 284 283 284 285 286 287 286 287 287 287 288 289 289 290 290 289
263 264 265 266 267 267 267 267 267 268 269 271 273 274 274 276 278 278 280 281 281 281 282 282 283 283 283 283 283 283 284 285 286 285 285 285 286 288 288 288 289 289 290
265 266 266 266 267 267 267 267 267 268 269 271 272 274 275 276 277 279 280 281 280 281 282 282 283 282 283 283 282 282 282 283 284 283 284 285 286 287 287 287 288 289 290
265 266 266 267 267 267 267 268 268 268 269 270 272 273 274 275 277 279 279 281 281 281 282 282 282 282 282 281 282 283 283 282 282 283 283 284 285 286 286 286 286 287 287
265 264 264 266 268 267 267 267 267 268 268 269 271 272 274 277 278 279 279 280 282 282 282 282 281 281 281 281 282 283 283 282 282 283 284 284 284 284 283 284 285 286 286
265 264 264 265 266 268 269 268 268 269 268 268 270 272 273 276 277 278 279 280 281 282 283 282 282 281 282 282 283 283 283 284 283 283 283 284 283 283 282 282 282 283 284
265 265 265 265 266 268 269 269 269 269 270 269 270 272 273 275 277 278 279 281 281 282 282 283 282 282 282 283 283 284 284 284 283 283 283 283 282 282 281 281 281 282 283
263 264 265 266 267 268 270 272 272 272 271 271 272 272 273 275 276 277 279 280 282 283 283 283 282 282 283 282 283 284 284 283 283 283 282 282 281 281 281 281 281 282 283
266 266 266 266 267 268 270 272 273 273 274 273 273 273 273 274 276 278 280 280 281 283 284 285 284 283 282 283 283 284 285 284 283 282 282 281 280 280 281 281 281 282 283
268 268 268 268 269 270 271 272 273 273 274 273 273 273 274 275 276 278 279 280 280 282 283 284 283 283 283 284 285 285 284 283 283 283 282 281 280 281 282 282 282 282 284
268 270 270 271 271 271 272 272 272 273 273 273 272 272 273 274 275 277 278 279 280 281 283 284 284 284 284 285 285 285 285 284 284 283 282 281 280 281 282 282 282 282 283
268 271 271 271 272 273 272 271 272 272 273 272 272 272 273 274 275 277 279 280 281 282 284 284 284 285 286 286 286 286 285 286 284 283 282 281 281 281 282 282 282 282 282
270 271 272 272 273 273 271 271 271 271 272 272 272 272 273 275 276 276 279 281 282 284 285 284 284 286 287 287 287 287 286 286 284 283 283 282 281 281 282 282 282 283 284
270 271 271 272 273 273 273 272 271 272 272 273 273 273 273 275 276 278 279 281 283 284 284 284 286 287 287 286 287 287 287 286 285 284 283 282 282 282 282 281 283 284 285
271 272 273 274 274 274 273 272 272 272 273 274 274 274 274 275 277 279 280 281 283 284 284 285 286 287 287 287 287 286 286 285 285 284 283 283 282 282 281 280 282 283 284
271 273 274 275 275 274 273 273 273 274 275 275 274 273 275 276 277 279 281 282 283 282 283 285 286 287 287 288 288 288 287 286 285 284 283 283 282 281 281 281 282 284 285